Weather in Nizhniye Narykary

Russia / Khanty-Mansi Autonomous Okrug — Yugra     63°11′19″N   64°56′29″E
temp.,
°C
wind,
m/s
gust,
m/s
humid.,
%
clouds,
%
prec.,
mm/h
press.,
hPa
HPBL,
m
10 may, mon
mon1023:00+14sse4116122 0.0 1024236
02:00+13sse612648 0.0 1024271
05:00+11sse512705 0.0 1026265
08:00+14s611595 0.0 1026409
11:00+19s79455 0.0 1025939
14:00+22s79370 0.0 10241903
17:00+23ssw79345 0.0 10232536
20:00+20s612417 0.0 1023462
11 may, tue
tue1123:00+16s6155297 0.0 1022421
02:00+14ssw61460100 0.1 1022401
05:00+12ssw41068100 0.2 1022272
08:00+13wnw2477100 0.3 1022441
11:00+7n5890100 4.6 1024464
14:00+9n467291 0.2 1025726
17:00+12nne355215 0.2 10251398
20:00+9ene34655 0.0 1026266
12 may, wed
wed1223:00+6se23765 0.0 102538
02:00+6s2380100 0.0 102542
05:00+6w2279100 0.0 102534
08:00+10w346337 0.0 1025451
11:00+14wnw3446100 0.0 10241245
14:00+15nnw3440100 0.0 10241610
17:00+16w2541100 0.0 10241563
20:00+13wsw4876100 0.0 1023405
13 may, thu
thu1323:00+11sw3788100 0.1 1022219
02:00+10wsw3596100 0.0 1021106
05:00+9wnw2396100 0.0 102181
08:00+12n496989 0.0 1022710
11:00+15nnw7114979 0.0 10231568
14:00+14n6948100 0.0 10251762
17:00+14n574699 0.0 10251361
20:00+13nne245555 0.0 1026159
14 may, fri
fri1423:00+11e2458100 0.0 1025137
02:00+9se3658100 0.0 1023165
05:00+9se2571100 0.0 1022146
08:00+11se237891 0.9 1018260
11:00+14ese0270100 1.0 1017425
14:00+17nnw356399 0.0 1017691
17:00+15ene0071100 0.3 1016240
20:00+15se237426 0.5 101591